Content
SEND FEEDBACK

Daily
Averages
Monthly
Summary
French Polynesia

FAAA, FRENCH POLYNESIA


Home > Oceania > French Polynesia
Elevation: 7 feet     Latitude: 17 33S     Longitude: 149 37W

WEATHER
 
SELECT A DAY
Number of Records: 213,053;   Date Range: 6/30/96 - 9/29/14
 
SHARE

PRINT THIS DATA

[ ← Previous Day ]
WEATHER ALMANAC - AUGUST 25, 2013
[ Next Day → ]
[ °C ]   °F
Weather ElementAverageHighLow
Temperature74.7 °F82.4 °F (1:30 pm)67 °F (5:00 am)
Dewpoint61.8 °F64.4 °F (12:30 pm)60.8 °F (2:00 am)
Humidity63.7 %78 % (1:00 am)42 % (11:00 am)
Barometer30.02 in30.08 in (8:00 pm)29.98 in (12:30 am)
Wind Speed6.1 mph31.3 mph (2:00 pm)
Weather ElementAverage
Visibility8.4 mi
Wind DirectionE (89.4 °)

Weather ElementTotal
Precipitation---
Cooling Degree Days9.7 (Base 65)
Growing Degree Days24.7 (Base 50)
Averaged from 55 records on August 25, 2013
WEATHER CONDITIONS BREAKOUT
WIND DIRECTION BREAKOUT
WEATHER BY HOUR - AUGUST 25, 2013
[ °C ]   °F
Local TimeTemperatureDewpointHumidityBarometerVisibilityWind DirectionWind SpeedGust SpeedPrecipitationEventsConditions
12:30 AM71.6 °F62.6 °F73 %29.98 in6.2 miSSE (150°)3.5 mphPartly Cloudy
1:00 AM69.8 °F62.6 °F78 %29.98 in6.2 miEast (80°)3.5 mphPartly Cloudy
1:30 AM69.8 °F62.6 °F78 %29.98 in6.2 miESE (110°)2.3 mphPartly Cloudy
2:00 AM69.0 °F61.0 °F69 %29.99 in12.0 miCalmScattered Clouds
2:00 AM69.8 °F60.8 °F73 %29.98 in6.2 miCalmPartly Cloudy
2:30 AM68.0 °F60.8 °F78 %29.98 in6.2 miESE (110°)2.3 mphPartly Cloudy
3:00 AM68.0 °F60.8 °F78 %29.98 in6.2 miEast (80°)3.5 mphPartly Cloudy
3:30 AM68.0 °F60.8 °F78 %29.98 in6.2 miESE (110°)2.3 mph
4:00 AM68.0 °F60.8 °F78 %29.98 in6.2 miESE (110°)2.3 mph
4:30 AM68.0 °F60.8 °F78 %29.98 in6.2 miESE (110°)2.3 mph
5:00 AM67.0 °F61.0 °F76 %29.99 in34.0 miEast (80°)6.7 mphClear
5:00 AM68.0 °F60.8 °F78 %29.98 in6.2 miEast (80°)3.5 mph
5:30 AM68.0 °F60.8 °F78 %29.98 in6.2 miEast (100°)4.6 mph
6:00 AM68.0 °F60.8 °F78 %30.01 in6.2 miESE (110°)3.5 mphPartly Cloudy
6:30 AM68.0 °F60.8 °F78 %30.01 in6.2 miVariable1.2 mphPartly Cloudy
7:00 AM69.8 °F60.8 °F73 %30.04 in6.2 miCalmPartly Cloudy
7:30 AM73.4 °F62.6 °F69 %30.04 in6.2 miSSE (160°)4.6 mphPartly Cloudy
8:00 AM74.0 °F62.0 °F56 %30.05 in25.0 miSouth (170°)3.5 mphPartly Cloudy
8:00 AM75.2 °F60.8 °F61 %30.04 in6.2 miVariable3.5 mphPartly Cloudy
8:30 AM77.0 °F60.8 °F57 %30.04 in6.2 miVariable3.5 mphPartly Cloudy
9:00 AM77.0 °F60.8 °F57 %30.06 in6.2 miSW (220°)4.6 mphPartly Cloudy
9:30 AM78.8 °F62.6 °F57 %30.06 in6.2 miWSW (250°)3.5 mphPartly Cloudy
10:00 AM78.8 °F60.8 °F54 %30.06 in6.2 miWest (260°)3.5 mphPartly Cloudy
10:30 AM78.8 °F62.6 °F57 %30.06 in6.2 miWest (270°)4.6 mphPartly Cloudy
11:00 AM81.0 °F62.0 °F42 %30.06 in25.0 miENE (60°)8.1 mphScattered Clouds
11:00 AM80.6 °F62.6 °F54 %30.04 in6.2 miENE (60°)8.1 mphPartly Cloudy
11:30 AM80.6 °F60.8 °F51 %30.04 in6.2 miNE (50°)15.0 mphPartly Cloudy
12:00 PM80.6 °F60.8 °F51 %30.04 in6.2 miNE (50°)15.0 mphPartly Cloudy
12:30 PM80.6 °F64.4 °F58 %30.01 in6.2 miNE (50°)15.0 mphPartly Cloudy
1:00 PM80.6 °F64.4 °F58 %30.01 in6.2 miNE (40°)15.0 mphPartly Cloudy
1:30 PM82.4 °F62.6 °F51 %30.01 in6.2 miNE (40°)16.1 mphPartly Cloudy
2:00 PM82.0 °F63.0 °F42 %30.00 in25.0 miNE (50°)31.3 mphPartly Cloudy
2:00 PM82.4 °F62.6 °F51 %29.98 in6.2 miNE (50°)16.1 mphScattered Clouds
2:30 PM78.8 °F60.8 °F54 %29.98 in6.2 miNE (50°)11.5 mphScattered Clouds
3:00 PM78.8 °F64.4 °F61 %29.98 in6.2 miNE (50°)13.8 mphScattered Clouds
3:30 PM80.6 °F64.4 °F58 %29.98 in6.2 miNE (50°)12.7 mphScattered Clouds
4:00 PM80.6 °F62.6 °F54 %29.98 in6.2 miSSW (200°)6.9 mphMostly Cloudy
4:30 PM78.8 °F62.6 °F57 %30.01 in6.2 miVariable2.3 mphMostly Cloudy
5:00 PM78.0 °F62.0 °F49 %30.02 in25.0 miSSE (160°)5.8 mphMostly Cloudy
5:00 PM78.8 °F62.6 °F57 %30.01 in6.2 miVariable5.8 mphMostly Cloudy
5:30 PM78.8 °F60.8 °F54 %30.01 in6.2 miSouth (190°)6.9 mphScattered Clouds
6:00 PM77.0 °F62.6 °F61 %30.04 in6.2 miSouth (180°)6.9 mphScattered Clouds
6:30 PM77.0 °F62.6 °F61 %30.04 in6.2 miSouth (190°)4.6 mphScattered Clouds
7:00 PM77.0 °F60.8 °F57 %30.04 in6.2 miSSW (200°)3.5 mphScattered Clouds
7:30 PM75.2 °F60.8 °F61 %30.06 in6.2 miVariable2.3 mphScattered Clouds
8:00 PM73.0 °F61.0 °F58 %30.08 in12.0 miESE (110°)2.3 mphScattered Clouds
8:00 PM73.4 °F60.8 °F65 %30.06 in6.2 miVariable2.3 mphPartly Cloudy
8:30 PM75.2 °F64.4 °F69 %30.06 in6.2 miNE (50°)6.9 mphPartly Cloudy
9:00 PM75.2 °F62.6 °F65 %30.06 in6.2 miNorth (10°)5.8 mphPartly Cloudy
9:30 PM71.6 °F62.6 °F73 %30.06 in6.2 miVariable2.3 mphPartly Cloudy
10:00 PM71.6 °F62.6 °F73 %30.06 in6.2 miESE (110°)3.5 mphPartly Cloudy
10:30 PM71.6 °F60.8 °F69 %30.06 in6.2 miVariable3.5 mphPartly Cloudy
11:00 PM71.0 °F61.0 °F63 %30.08 in12.0 miEast (100°)6.7 mphScattered Clouds
11:00 PM71.6 °F60.8 °F69 %30.06 in6.2 miEast (100°)3.5 mphPartly Cloudy
11:30 PM71.6 °F60.8 °F69 %30.06 in6.2 miENE (70°)4.6 mphPartly Cloudy
Hourly data recorded from NTAA, located miles away from Faaa, French Polynesia







STORIES FROM OUR PARTNERS